Location: Sawyer Lake
(45.2517°N, 88.7550°W)
Time: 02:57:03
(UTC-05:00)

Daily predictions for brighter satellites

Satellite Brightness Start Highest point End
(mag) Time Altitude Azimuth Time Altitude Azimuth Time Altitude Azimuth
Cosmos 2074 Rocket 4.2 00:11:47 10° N 00:17:40 59° ENE 00:17:40 59° ENE
Cosmos 2297 4.1 00:14:49 10° NNW 00:19:30 57° WNW 00:19:30 57° WNW
Cosmos 2285 Rocket 4.0 00:20:50 83° N 00:20:50 83° N 00:27:01 10° NNE
Cosmos 2369 Rocket 3.7 00:20:25 10° N 00:25:11 27° NE 00:26:15 26° ENE
Cosmos 1607 4.3 00:23:39 10° NNW 00:29:56 58° NE 00:30:26 57° ENE
Terra 4.5 00:32:07 10° W 00:32:07 10° W 00:32:17 10° W
CZ-2C R/B 3.8 00:36:16 45° NNW 00:36:16 45° NNW 00:39:42 10° NNW
Cosmos 1943 Rocket 4.2 00:39:43 10° N 00:44:06 22° NE 00:46:25 18° E
SL-16 R/B 2.5 00:46:54 62° NNW 00:46:54 62° NNW 00:51:58 10° NNE
Meteor 2-13 Rocket 4.5 00:41:34 10° N 00:47:06 74° N 00:47:06 74° N
CZ-4C R/B 3.8 00:44:19 10° NW 00:49:47 33° W 00:49:47 33° W
Cosmos 1125 Rocket 4.2 00:49:51 10° NNW 00:53:51 52° NNW 00:53:51 52° NNW
Gbstr 26 Del rocket 4.4 00:54:37 64° WSW 00:56:08 89° NNW 01:04:04 10° ENE
Cosmos 1763 Rocket 4.4 01:01:57 43° NW 01:01:57 43° NW 01:06:25 10° N
ATLAS CENTAUR R/B 3.4 01:08:06 26° N 01:08:06 26° N 01:10:08 10° NNE
Cosmos 2333 Rocket 4.4 01:03:17 14° W 01:06:18 20° NW 01:10:31 10° N
Cosmos 2237 Rocket 4.1 01:08:10 20° WNW 01:10:09 23° NW 01:14:41 10° N
USA 267 4.3 01:10:14 10° E 01:16:19 43° NNE 01:22:24 10° NW
ATLAS 2AS CENTAUR R/B 2.9 01:20:12 68° WSW 01:21:22 83° NW 01:29:33 10° NE
Nadezhda 1 Rocket 4.0 01:21:53 70° NW 01:21:53 70° NW 01:27:48 10° N
CZ-2C R/B 3.6 01:16:56 10° N 01:21:47 39° WNW 01:21:47 39° WNW
Meteor 2-4 Rocket 4.0 01:30:17 62° NNE 01:30:17 62° NNE 01:34:47 10° NNE
NOSS 3-2 (A) 4.4 01:26:21 10° NW 01:33:37 59° NE 01:38:59 22° ESE
Cosmos 540 Rocket 4.2 01:41:01 47° NNW 01:41:01 47° NNW 01:45:12 10° NNE
Cosmos 1295 Rocket 4.4 01:35:06 10° N 01:41:04 80° ENE 01:41:04 80° ENE
Cosmos 1943 3.5 01:43:07 59° ENE 01:43:07 59° ENE 01:47:57 10° NNE
Cosmos 2228 4.5 01:42:00 10° N 01:45:13 35° NE 01:45:13 35° NE
Cosmos 2263 4.3 01:45:35 10° NNW 01:51:02 77° NNE 01:51:02 77° NNE
Cosmos 2341 Rocket 4.0 01:47:32 10° NNW 01:53:26 68° WNW 01:53:26 68° WNW
ATLAS 3B R/B 3.2 01:48:20 10° NW 01:53:18 41° W 01:53:18 41° W
Meteor 2-19 Rocket 4.5 01:51:13 10° NNW 01:56:49 66° WNW 01:56:49 66° WNW
Cosmos 44 4.2 02:00:07 10° NNW 02:03:25 40° N 02:03:25 40° N
Cosmos 1603 4.3 02:04:20 45° WNW 02:04:31 45° WNW 02:10:02 10° NNE
Resurs 1-4 Rocket 4.3 02:03:46 10° NE 02:06:51 16° E 02:08:30 14° ESE
Cosmos 1809 Rocket 4.5 02:02:34 10° N 02:08:42 70° E 02:09:24 64° ESE
Cosmos 2369 Rocket 2.9 02:04:04 10° NW 02:08:01 42° WNW 02:08:01 42° WNW
Cosmos 1025 Rocket 4.5 02:11:18 32° NNW 02:11:18 32° NNW 02:14:02 10° N
Cosmos 1959 Rocket 4.3 02:05:02 10° N 02:11:19 86° E 02:11:49 77° SSE
USA 238 DEB 4.0 02:05:14 10° NW 02:11:14 51° W 02:11:14 51° W
USA 238 4.0 02:05:20 10° NW 02:11:23 51° W 02:11:23 51° W
SL-08 R/B 4.2 02:12:21 42° E 02:12:43 43° ENE 02:17:14 10° N
H-2A R/B 4.3 02:13:09 10° N 02:15:04 23° NNW 02:15:04 23° NNW
CZ-2D R/B 4.1 02:13:30 10° NE 02:17:12 19° E 02:18:55 16° ESE
SL-08 R/B 4.3 02:12:19 10° N 02:18:40 87° E 02:19:18 74° SSE
Cosmos 1680 Rocket 4.3 02:23:12 41° ESE 02:23:23 41° ESE 02:28:18 10° NE
RESURS DK-1 4.4 02:25:43 21° E 02:25:43 21° E 02:28:14 10° NE
COSMOS 2455 3.4 02:19:06 10° NNW 02:25:03 57° NE 02:29:08 20° SE
USA 215 3.2 02:19:01 10° NE 02:25:35 84° NW 02:26:59 59° WSW
Cosmos 1943 Rocket 2.2 02:22:47 10° NNW 02:27:55 66° WNW 02:27:55 66° WNW
Meteor 1-4 Rocket 4.1 02:28:43 10° N 02:31:48 35° NE 02:31:48 35° NE
Meteor 1-16 4.5 02:27:47 10° NNW 02:33:23 86° W 02:33:32 84° SSW
COSMOS 2406 4.2 02:35:41 33° SE 02:36:46 36° ESE 02:41:58 10° NE
Cosmos 2058 Rocket 4.4 02:33:14 10° NNW 02:35:51 32° NW 02:35:51 32° NW
Meteor 1-22 Rocket 4.3 02:33:17 10° N 02:38:52 68° ENE 02:39:55 55° SE
NOSS 3-2 (C) 3.9 02:36:17 10° NW 02:43:47 80° SW 02:50:12 18° SSE
Cosmos 292 Rocket 4.0 02:44:22 61° NW 02:44:22 61° NW 02:48:58 10° NNE
Cosmos 1066 Rocket 3.9 02:44:24 79° S 02:44:45 89° E 02:50:09 10° N
ARIANE 5 R/B 3.8 02:43:17 10° NNE 02:48:01 33° E 02:49:48 26° SE
Cosmos 1626 Rocket 3.7 02:49:17 74° NNE 02:49:17 74° NNE 02:53:19 10° N
Cosmos 724 4.2 02:43:14 10° NW 02:49:22 81° WSW 02:50:52 53° SSE
IRS-1C 4.4 02:46:34 10° NNE 02:51:53 62° ESE 02:52:56 51° SSE
Meteor 2-14 Rocket 4.3 02:47:44 10° NNW 02:53:53 74° W 02:55:00 59° SSW
CENTAUR R/B 3.7 02:46:56 10° NNW 02:54:31 57° NE 03:02:44 10° ESE
Cosmos 2218 Rocket 4.3 02:49:26 10° NNW 02:55:18 44° W 02:55:34 44° W
SL-16 R/B 2.8 02:51:39 25° SE 02:55:25 66° ENE 03:01:31 10° N
Cosmos 923 Rocket 3.9 02:56:08 71° SW 02:56:40 81° WNW 03:02:03 10° NNE
ADEOS Rocket 3.8 02:51:02 10° NNE 02:56:48 45° E 03:00:01 26° SSE
Meteor 2-16 Rocket 4.3 02:50:42 10° N 02:56:48 79° W 02:58:11 55° SSW
Meteor 2-21 Rocket 4.4 02:52:15 10° NNW 02:58:21 64° W 02:59:16 56° SW
USA 267 3.1 02:52:26 10° SE 02:59:00 85° SW 03:05:35 10° NW
Cosmos 2366 rocket 4.3 02:53:05 10° NNW 02:59:05 47° W 02:59:37 46° WSW
Cosmos 1953 3.9 02:57:39 10° N 03:01:16 31° ENE 03:02:57 22° ESE
AQUA 3.6 02:58:41 10° NNE 03:03:29 89° ESE 03:03:55 75° SSW
GEOS 3 Rocket 4.2 02:59:38 10° NE 03:04:46 48° ESE 03:05:55 42° SSE
Cosmos 1602 Rocket 3.7 03:09:59 60° WNW 03:09:59 60° WNW 03:14:17 10° N
Cosmos 1656 Rocket 3.4 03:05:20 10° NNW 03:10:45 71° WSW 03:11:51 55° S
NOSS 3-4 (A) 3.5 03:09:46 48° SW 03:11:39 78° NW 03:18:13 10° NE
NOSS 3-4 (C) 3.5 03:09:52 48° SW 03:11:44 79° NW 03:18:20 10° NE
ATLAS 2AS CENTAUR R/B 4.4 03:07:36 13° W 03:13:36 31° NNW 03:20:41 10° NNE
IRS-P3 4.3 03:09:51 10° N 03:15:05 57° WNW 03:16:02 50° WSW
Cosmos 1758 3.9 03:13:49 10° N 03:17:52 55° ENE 03:19:11 37° SE
NOSS 3-2 (A) 4.4 03:17:32 10° NW 03:24:28 40° WSW 03:26:15 36° SW
UNK 3.6 03:27:09 53° S 03:28:09 75° WSW 03:32:45 10° NNW
Meteor 1-21 4.1 03:27:47 44° SSW 03:29:37 78° W 03:35:15 10° N
NOSS 2-2 (C) 4.5 03:29:42 32° SSE 03:30:43 37° ESE 03:34:58 10° NE
Tiangong 1 3.4 03:33:00 15° ESE 03:33:00 15° ESE 03:33:36 10° ESE
Cosmos 2112 Rocket 4.1 03:30:38 46° WSW 03:32:01 61° WNW 03:37:15 10° NNE
Abrixas 3.5 03:34:03 42° NNE 03:34:03 42° NNE 03:36:15 10° ENE
Aureole 1 Rocket 3.8 03:34:07 40° W 03:35:07 45° WNW 03:39:12 10° N
Cosmos 1733 4.4 03:34:32 10° N 03:38:09 40° ENE 03:41:23 12° SE
Cosmos 2098 Rocket 3.9 03:37:22 10° NNE 03:40:04 29° ENE 03:41:44 17° SE
Lacrosse 5 rocket 2.2 03:41:40 35° S 03:43:04 46° SE 03:47:33 10° ENE
NPP 4.4 03:38:10 10° N 03:43:05 37° WNW 03:44:40 30° WSW
Cosmos 389 Rocket 3.7 03:42:09 10° N 03:45:38 42° ENE 03:49:03 10° SSE
Cosmos 1624 Rocket 3.9 03:40:36 10° NNW 03:45:48 69° WSW 03:49:36 19° S
MOS 1 Rocket 4.4 03:41:57 10° NNE 03:45:57 36° E 03:49:34 13° SSE
Resurs 1-4 Rocket 2.0 03:41:59 10° N 03:47:15 74° WNW 03:49:36 34° SSW
Cosmos 1544 3.4 03:44:09 10° NNW 03:47:31 46° W 03:47:31 46° W
Nadezhda 3 Rocket 4.4 03:46:00 32° SW 03:48:25 47° WNW 03:54:32 10° N
Cosmos 1805 3.4 03:44:48 10° NNW 03:48:38 51° W 03:48:58 49° WSW
Cosmos 374 Rocket 4.1 03:44:59 10° NW 03:48:43 63° SW 03:52:39 10° SSE
Cosmos 1271 Rocket 2.5 03:45:04 10° NNW 03:48:47 64° W 03:49:22 54° SW
USA 161 2.5 03:48:14 25° SE 03:49:35 46° ENE 03:52:23 10° N
Cosmos-2242 3.6 03:46:09 10° N 03:50:31 57° ENE 03:54:50 10° SSE
Spot 4 Rocket 4.2 03:46:45 10° N 03:51:49 57° WNW 03:53:54 34° SW
Cosmos 1758 Rocket 3.4 03:51:05 35° S 03:52:54 88° W 03:57:16 10° N
USA 32 4.0 03:54:34 29° SSW 03:57:18 71° W 04:02:34 10° N
CZ-2D R/B 2.2 03:52:28 10° N 03:57:43 61° WNW 04:00:15 30° SW
Cosmos 921 Rocket 3.0 03:54:39 10° NNW 03:59:07 65° WSW 04:02:20 18° S
Cosmos 2056 Rocket 3.6 03:53:57 10° NNW 03:59:11 57° WSW 04:03:28 15° S
RESURS DK-1 3.2 04:01:38 30° W 04:02:50 36° NW 04:06:42 10° NNE
NOSS 5 (C) 4.2 04:02:15 50° SW 04:03:00 76° NW 04:06:04 10° NE
Cosmos 1842 4.2 04:03:37 29° W 04:04:06 30° WNW 04:07:35 10° NNW
USA 215 4.3 04:02:10 10° NE 04:08:09 39° NNW 04:14:07 10° W
ADEOS 3.9 04:04:19 10° N 04:09:19 48° WNW 04:12:00 26° SW
COSMOS 2455 3.7 04:05:40 10° NW 04:10:37 27° WSW 04:12:09 24° SW
Cosmos 1953 Rocket 3.8 04:12:22 28° SW 04:14:24 51° WNW 04:18:46 10° N
DNEPR-1 R/B 3.4 04:10:24 10° NW 04:14:38 89° WSW 04:19:04 10° SE
Cosmos 2082 Rocket 3.6 04:09:37 10° S 04:14:43 35° ESE 04:19:50 10° NE
Cosmos 1833 Rocket 4.2 04:11:04 10° SSE 04:15:59 32° ESE 04:20:55 10° NE
Cosmos 1727 Rocket 4.0 04:10:06 11° S 04:16:00 87° E 04:22:13 10° N
IRS-1D 4.2 04:11:17 10° N 04:16:07 41° WNW 04:18:54 23° WSW
Cosmos 1656 4.3 04:12:35 10° NNW 04:17:58 56° ENE 04:23:16 10° SE
SL-27 R/B 3.6 04:17:17 26° W 04:18:15 30° WNW 04:21:31 10° N
COSMOS 2406 4.0 04:17:44 21° WSW 04:21:01 39° NW 04:26:25 10° NNE
Orbus 7S? 3.0 04:18:38 10° NW 04:22:23 69° NE 04:24:57 10° ESE
MOZ.5/SAFIR/RUBIN 5/SL-8 3.9 04:19:03 13° S 04:23:05 52° W 04:27:41 10° NNW
Cosmos 1153 Rocket 4.4 04:16:56 10° N 04:23:06 85° W 04:29:14 10° S
CZ-2D R/B 3.4 04:20:28 10° N 04:24:31 62° WNW 04:27:05 21° SSW
NOSS 2-2 (E) 3.7 04:24:13 24° WSW 04:26:40 63° NW 04:31:36 10° NE
EXPRESS MD2 3.3 04:20:52 10° WNW 04:26:50 89° NE 04:29:52 10° ESE
ARIANE 5 R/B 3.4 04:22:23 10° N 04:27:07 35° WNW 04:30:09 19° WSW
Landsat 4 3.6 04:26:15 10° S 04:29:58 73° WSW 04:33:43 10° NNW
Cosmos 1707 2.6 04:27:49 16° SSW 04:30:48 75° W 04:34:41 10° N
Meteor 1-16 Rocket 4.1 04:28:22 10° N 04:33:49 90° E 04:39:07 10° S
Cosmos 1452 Rocket 3.5 04:29:01 10° NNW 04:34:15 67° WSW 04:39:27 10° S
Cosmos 1470 3.3 04:32:26 10° NNW 04:36:05 38° W 04:39:06 14° SSW
Cosmos 1953 3.7 04:34:30 10° NW 04:37:30 20° W 04:38:39 18° WSW
SL-16 R/B 3.7 04:36:44 16° SW 04:39:31 22° W 04:44:11 10° NW
ADEOS Rocket 3.9 04:36:57 10° N 04:42:12 33° WNW 04:46:59 14° WSW
USA 267 4.1 04:37:25 10° S 04:42:36 25° SW 04:47:48 10° WNW
Intercosmos 25 4.5 04:37:01 10° NNW 04:44:55 63° W 04:49:39 10° S
CENTAUR R/B 3.4 04:37:52 10° NW 04:45:16 44° WSW 04:53:04 10° S
COSMOS 2487 2.4 04:43:51 14° SSW 04:46:50 73° WNW 04:50:26 10° NNE
Cosmos 1459 Rocket 4.0 04:41:29 10° N 04:47:40 87° E 04:53:54 10° S
UNKNOWN OBJECT B 4.0 04:45:29 10° N 04:48:53 28° WNW 04:51:34 14° WSW
Okean O Rocket 1.9 04:44:41 10° NNE 04:49:09 72° ESE 04:53:33 10° S
Cosmos 1378 3.1 04:46:17 10° SSW 04:49:59 65° W 04:53:44 10° N
Cosmos 1420 Rocket 4.0 04:45:39 10° NNW 04:50:59 74° WSW 04:56:15 10° SSE
Cosmos 1818 3.9 04:47:39 14° SW 04:52:12 56° NW 04:57:36 10° NNE
ADEOS II 2.3 04:48:01 10° NNE 04:53:18 75° ESE 04:58:33 10° S
Cosmos 1048 Rocket 4.2 04:53:42 10° SSW 04:58:48 74° ESE 05:03:56 10° NNE
Meteor 1-24 Rocket 3.7 04:56:40 10° S 05:02:08 89° ESE 05:07:51 10° N
NOSS 2-2 (D) 4.5 04:59:14 12° WSW 05:02:53 38° NW 05:07:31 10° NNE
Tiangong 1 2.2 05:04:20 12° WSW 05:06:17 22° SSW 05:08:35 10° SSE
Abrixas 3.4 05:06:06 10° WNW 05:08:49 43° N 05:11:32 10° E
PSLV R/B 4.2 05:05:53 10° N 05:09:52 52° WNW 05:13:53 10° SSW
Cosmos 1269 Rocket 4.1 05:06:27 10° SSW 05:11:44 88° WNW 05:17:03 10° NNE
SL-24 R/B 4.4 05:07:56 10° NNE 05:12:48 77° E 05:17:07 10° S
CZ-4B DEB 4.2 05:14:28 10° NNE 05:19:59 77° WNW 05:25:27 10° SSW
Meteor 2-17 Rocket 4.5 05:14:24 10° NNW 05:20:23 64° W 05:26:20 10° S
